Winnipeg, Manitoba

3:02 PM CDT on April 21, 2018 (GMT -0500)
Winnipeg International Airport

Weather History for CYWG - September, 2013

Change the Weather History Date:

Monday, September 23, 2013

  Actual Average Record
Temperature  
Mean Temperature 71 °F -  
Max Temperature 80 °F 55 °F 80 °F (2013)
Min Temperature 62 °F 35 °F 20 °F (2012)
Cooling Degree Days 6    
Growing Degree Days 21 (Base 50)    
Moisture  
Dew Point 53 °F    
Average Humidity 55    
Maximum Humidity 77    
Minimum Humidity 38    
Precipitation  
Precipitation 0.02 in 0.05 in - ()
Sea Level Pressure  
Sea Level Pressure 29.58 in    
Wind  
Wind Speed 19 mph ()    
Max Wind Speed 29 mph    
Max Gust Speed 41 mph    
Visibility 15.0 miles    
Events      
Averages and records for this station are not official NWS values.
T = Trace of Precipitation, MM = Missing Value Source: Averaged Metar Reports

Daily Weather History Graph

Daily Weather History Graph

Search for Another Location

Airport or City:

Astronomy

Sep. 23, 2013 Rise Set
Actual Time 7:17 AM CDT 7:24 PM CDT
Civil Twilight 6:45 AM CDT 7:56 PM CDT
Nautical Twilight 6:07 AM CDT 8:34 PM CDT
Astronomical Twilight 5:27 AM CDT 9:13 PM CDT
Moon 9:29 PM CDT (9/23) 12:04 PM CDT (9/23)
Length of Visible Light 13h 11m
Length of Day
12h 06m
Waning Gibbous, 81% of the Moon is Illuminated
Sep 23
Waning Gibbous
Sep 26
Last Quarter
Oct 4
New
Oct 11
First Quarter
Oct 18
Full

Hourly Weather History & Observations

Time (CDT) Temp. Dew Point Humidity Pressure Visibility Wind Dir Wind Speed Gust Speed Precip Events Conditions
12:00 AM 62.6 °F 51.8 °F 68% 29.57 in 15.0 mi SE 21.9 mph 27.6 mph N/A   Scattered Clouds
1:00 AM 66 °F 55 °F 60% 29.54 in - Calm Calm - -  
1:00 AM 66.2 °F 53.6 °F 64% 29.55 in 15.0 mi SSE 21.9 mph 33.4 mph N/A   Mostly Cloudy
2:00 AM 66.2 °F 53.6 °F 64% 29.54 in 15.0 mi SSE 26.5 mph 33.4 mph N/A   Overcast
3:00 AM 66.2 °F 53.6 °F 64% 29.55 in 15.0 mi SSE 20.7 mph 27.6 mph N/A   Overcast
4:00 AM 66.2 °F 53.6 °F 64% 29.56 in 15.0 mi South 18.4 mph 25.3 mph N/A   Mostly Cloudy
5:00 AM 64.4 °F 53.6 °F 68% 29.56 in 15.0 mi SSE 15.0 mph 23.0 mph N/A   Overcast
6:00 AM 62.6 °F 53.6 °F 72% 29.57 in 15.0 mi SSE 12.7 mph 18.4 mph N/A   Mostly Cloudy
7:00 AM 65 °F 54 °F 59% 29.58 in - Calm Calm - -  
7:00 AM 64.4 °F 51.8 °F 64% 29.58 in 15.0 mi South 20.7 mph 27.6 mph N/A   Mostly Cloudy
8:00 AM 64.4 °F 51.8 °F 64% 29.60 in 15.0 mi South 20.7 mph 28.8 mph N/A   Mostly Cloudy
9:00 AM 64.4 °F 51.8 °F 64% 29.60 in 15.0 mi South 20.7 mph 27.6 mph N/A   Mostly Cloudy
10:00 AM 66.2 °F 51.8 °F 60% 29.62 in 15.0 mi South 15.0 mph 26.5 mph N/A   Mostly Cloudy
11:00 AM 71.6 °F 53.6 °F 53% 29.62 in 15.0 mi SSW 17.3 mph 25.3 mph N/A   Mostly Cloudy
12:00 PM 73.4 °F 53.6 °F 50% 29.60 in 15.0 mi SSE 23.0 mph 29.9 mph N/A   Overcast
1:00 PM 74 °F 55 °F 41% 29.57 in - Calm Calm - -  
1:00 PM 75.2 °F 53.6 °F 47% 29.58 in 15.0 mi SSE 25.3 mph 35.7 mph N/A   Overcast
2:00 PM 77.0 °F 53.6 °F 44% 29.58 in 15.0 mi South 19.6 mph 34.5 mph N/A   Mostly Cloudy
3:00 PM 78.8 °F 53.6 °F 42% 29.57 in - SSE 28.8 mph 39.1 mph N/A   Scattered Clouds
4:00 PM 78.8 °F 51.8 °F 39% 29.56 in - South 26.5 mph 39.1 mph N/A   Mostly Cloudy
5:00 PM 78.8 °F 51.8 °F 39% 29.56 in 15.0 mi South 24.2 mph 41.4 mph N/A   Mostly Cloudy
6:00 PM 78.8 °F 51.8 °F 39% 29.57 in 15.0 mi South 28.8 mph 41.4 mph N/A   Mostly Cloudy
7:00 PM 75 °F 54 °F 38% 29.57 in - Calm Calm - -  
7:00 PM 75.2 °F 51.8 °F 44% 29.58 in 15.0 mi South 17.3 mph 26.5 mph N/A   Mostly Cloudy
8:00 PM 73.4 °F 51.8 °F 47% 29.59 in 15.0 mi South 23.0 mph 29.9 mph N/A   Mostly Cloudy
9:00 PM 73.4 °F 51.8 °F 47% 29.60 in 15.0 mi South 24.2 mph 33.4 mph N/A   Mostly Cloudy
10:00 PM 71.6 °F 53.6 °F 53% 29.62 in 15.0 mi South 21.9 mph - N/A   Overcast
11:00 PM 64.4 °F 57.2 °F 77% 29.67 in 15.0 mi West 20.7 mph 28.8 mph N/A   Overcast